This is the latest recevied weather packets stored in our database for station/object KB2AHZ. If no packets are shown the sender has not sent any weather packets the latest 10 day(s).
| Time | Temp. | Humidity | Pressure | Rain* | Wind** | Luminosity | Snow |
|---|---|---|---|---|---|---|---|
| 1777425880 | 16.11° C | 90% | 1017.6 hPa | 0 mm | - | 0 W/m² | - |
| 1777425576 | 16.11° C | 91% | 1017.9 hPa | 0 mm | - | 0 W/m² | - |
| 1777425271 | 16.11° C | 91% | 1017.8 hPa | 0 mm | - | 0 W/m² | - |
| 1777424969 | 16.11° C | 91% | 1017.9 hPa | 0 mm | - | 0 W/m² | - |
| 1777424664 | 16.11° C | 91% | 1017.7 hPa | 0 mm | - | 0 W/m² | - |
| 1777424359 | 16.11° C | 90% | 1017.5 hPa | 0 mm | - | 0 W/m² | - |
| 1777424055 | 16.11° C | 90% | 1017.7 hPa | 0 mm | - | 0 W/m² | - |
| 1777423753 | 16.11° C | 90% | 1017.6 hPa | 0 mm | - | 0 W/m² | - |
| 1777423448 | 16.11° C | 90% | 1017.8 hPa | 0 mm | - | 0 W/m² | - |
| 1777423144 | 16.11° C | 90% | 1017.2 hPa | 0 mm | - | 0 W/m² | - |
| 1777422838 | 16.11° C | 90% | 1017.4 hPa | 0 mm | - | 0 W/m² | - |
| 1777422534 | 16.11° C | 89% | 1017.4 hPa | 0 mm | - | 0 W/m² | - |
| 1777422229 | 16.11° C | 89% | 1016.5 hPa | 0 mm | - | 0 W/m² | - |
| 1777421929 | 16.11° C | 90% | 1016.7 hPa | 0 mm | - | 0 W/m² | - |
| 1777421624 | 16.11° C | 90% | 1016.6 hPa | 0 mm | - | 0 W/m² | - |
| 1777421319 | 16.11° C | 90% | 1016.4 hPa | 0 mm | - | 1 W/m² | - |
| 1777421017 | 16.67° C | 89% | 1016.5 hPa | 0 mm | - | 1 W/m² | - |
| 1777420712 | 16.67° C | 88% | 1016.5 hPa | 0 mm | - | 3 W/m² | - |
| 1777420409 | 16.67° C | 88% | 1016.4 hPa | 0 mm | - | 6 W/m² | - |
| 1777420106 | 16.67° C | 88% | 1016.6 hPa | 0 mm | - | 7 W/m² | - |
| 1777419802 | 17.22° C | 87% | 1016.9 hPa | 0 mm | - | 11 W/m² | - |
| 1777419500 | 16.67° C | 87% | 1017.1 hPa | 0 mm | - | 17 W/m² | - |
| 1777419198 | 16.67° C | 87% | 1017.1 hPa | 0 mm | - | 21 W/m² | - |
| 1777418895 | 17.22° C | 87% | 1017.2 hPa | 0 mm | - | 25 W/m² | - |
| 1777418590 | 17.22° C | 87% | 1017.3 hPa | 0 mm | - | 27 W/m² | - |
* Rain latest hour (hover to see other rain measurements)
** Current wind speed in m/s (hover to see current wind gust speed)